Location: Fort Worth, Tx
(32.7431°N, 97.3695°W)
Time: 08:31:52
(UTC-04:00)

Explorer 11/Cluster Stage 4 - Pass Details

Date: 01 February 2023
Orbit: 466 x 1241 km, 28.8° (Epoch: 02 April)

Event Time Altitude Azimuth Distance (km) Brightness Sun altitude
Exits shadow 05:19:23 23° 159° (SSE) 2,294 9.0 -39.1°
Maximum altitude 05:20:07 24° 151° (SSE) 2,288 9.0 -38.9°
Drops below altitude 10° 05:26:16 10° 102° (ESE) 3,203 10.4 -37.7°
Sets 05:29:49 0° 89° (E) 4,154 11.3 -36.9°
